Torna al catalogo

DELTA 1 DEB

AttivoSSO
NORAD 21492·DEBRIS·🇺🇸 United States

Lanciato Jun 12, 1975 da Vandenberg Space Force Base

Loading…

Prossimi Passaggi (prossime 24 ore)

TLE

AggiornatoSource: Space-Track

Epoca: Sep 14, 2026, 07:32 UTC

1 21492U 75052FM  26257.31415288  .00000037  00000-0  15913-3 0  9993
2 21492  99.8389  15.6897 0061595 353.2024  32.0180 13.33796298720618

Traccia DELTA 1 DEB in tempo reale con AllMySat

Download on the App Store